Location: Unspecified
(44.3254°N, 0.0000°E)
Time: 05:02:07
(UTC+00:00)

CBERS 2 - Visible Passes

Search period start: 04 April 2026 00:00
Search period end: 14 April 2026 00:00
Orbit: 768 x 771 km, 98.7° (Epoch: 28 March)

Date Brightness Start Highest point End Pass type
(mag) Time Alt. Az. Time Alt. Az. Time Alt. Az.
4 Apr 8.3 02:46:04 10° NE 02:49:47 20° E 02:53:28 10° SE visible
4 Apr 6.2 04:24:09 10° N 04:29:08 54° WNW 04:34:04 10° SSW visible
5 Apr 6.2 03:48:31 10° NNE 03:53:38 74° ESE 03:58:33 11° S visible
6 Apr 7.4 03:13:17 10° NNE 03:17:58 35° E 03:22:35 10° SSE visible
6 Apr 6.9 04:52:27 10° N 04:56:55 31° WNW 05:01:21 10° SW visible
7 Apr 8.5 02:38:49 10° NE 02:42:05 17° E 02:45:20 10° SE visible
7 Apr 6.0 04:16:30 10° N 04:21:33 63° WNW 04:26:35 10° SSW visible
8 Apr 6.4 03:40:56 10° NNE 03:46:01 63° ESE 03:51:04 10° S visible
9 Apr 7.7 03:05:50 10° NE 03:10:18 30° E 03:14:44 10° SSE visible
9 Apr 6.7 04:44:43 10° N 04:49:22 36° WNW 04:54:00 10° SW visible
10 Apr 8.6 02:31:42 10° ENE 02:34:23 14° E 02:37:03 10° ESE visible
10 Apr 6.0 04:08:51 10° N 04:13:58 75° WNW 04:19:03 10° SSW visible
11 Apr 6.7 03:33:23 10° NNE 03:38:24 53° E 03:43:22 10° S visible
12 Apr 8.0 02:58:24 10° NE 03:02:37 25° E 03:06:48 10° SSE visible
12 Apr 6.5 04:37:00 10° N 04:41:48 42° WNW 04:46:35 10° SW visible
13 Apr 8.7 02:24:50 10° ENE 02:26:39 12° E 02:28:29 10° ESE visible
13 Apr 6.0 04:01:14 10° NNE 04:06:22 87° WNW 04:11:29 10° SSW visible
